COSMOS 1275 DEB, 39968

Orbit data source: Space-Track

COSMOS 1275 DEB, 39968 is space debris in LEO originally from a launch on Thu, 04 Jun 1981 UTC launched from the Plesetsk Missile And Space Complex (PKMTR). Debris objects in space refer to the collection of defunct objects orbiting the Earth. Examples of debris include non-operational satellites, rocket bodies, and fragments generated from explosions, collisions, or faulty payload assembly.

Loading next visibility...
Identifier
39968, 1981-053PE
Orbit
LEO
Country
Flag of CISCIS
Related business
Manufacturer
Unknown
Mission
Spacecraft
Bus & Motor
Unknown
Mass
Unknown
Launch date (UTC)
1981-06-04 (44 years ago)
Launch vehicle
Unknown
Launch site
Plesetsk Missile And Space Complex (PKMTR)
Object type
Payload
Rocket body
Debris
Shape & HBR
Unknown shape, 0.1 m
Radar Cross Section
Small (<0.1 m²)

Expand to show TLE details & history
Last TLE update: 1 day ago

TLE from 1 day ago
0 COSMOS 1275 DEB
1 39968U 81053PE  25285.91339057  .00001303  00000-0  12338-2 0  9997
2 39968  83.1468 165.6840 0079317  24.5048 335.9848 13.78936643 27781
Epoch: 2025-10-12T21:55Z
TLE epoch observation values (Epoch: 2025-10-12T21:55:16.945Z)
Latitude
0.00005°
Longitude
175.1397°
Altitude
917.417 km
Speed
7.42 km/s
True Right ascension
11h 02m 44s
True Declination
0° 00' 00"
Sunlit
Object was in daylight at epoch
Visualization orbit readout
Latitude
Unknown
Longitude
Unknown
Altitude
Unknown
Speed
Unknown
Apparent Right ascension
Unknown
Apparent Declination
Unknown
Sunlit
N/A
Visualization observer readout
Local Sidereal Time
21:07:17
Azimuth
Unknown
Elevation
Unknown
Doppler factor
Unknown
Orbital elements
Apogee altitude
1,023.038 km
Perigee altitude
906.554 km
Semi-major axis
7,342.933 km
Eccentricity
0.00793
Inclination
83.1468°
RAAN
165.684°
Arg. of periapsis
24.5048°
True anomaly
335.61152°
Mean anomaly
335.9848°
Eccentric anomaly
335.7985°
Mean motion
3.44936 °/min
Orbital period
104.37 mins
BSTAR
0.0012338
Loading maneuver chart data...
Computing Atmospheric mass density...
Loading historical data...
Loading historical data...
Loading historical data...
Loading historical data...
Loading historical data...
Loading historical data...
Loading historical data...

Documentation

Showing up to 5 results
|